| time (UTC) | temp F | wind direction | speed MPH | gust MPH | rain 1hr in | rain 24hr in | rain mn in | humidity % | barometer mb |
| 20260905114530 | 63 | 281 | 0.0 | 2.0 | 0.00 | 0.00 | 0.00 | 64 | 1000.8 |
| 20260905113024 | 62 | 159 | 0.0 | 2.0 | 0.00 | 0.00 | 0.00 | 65 | 1000.7 |
| 20260905111516 | 63 | 163 | 0.0 | 2.0 | 0.00 | 0.00 | 0.00 | 64 | 1000.8 |
| 20260905110030 | 63 | 185 | 0.0 | 2.0 | 0.00 | 0.00 | 0.00 | 64 | 1000.8 |
| 20260905104533 | 61 | 190 | 0.0 | 1.0 | 0.00 | 0.00 | 0.00 | 67 | 1000.7 |
| 20260905103030 | 63 | 190 | 0.0 | 1.0 | 0.00 | 0.00 | 0.00 | 63 | 1000.6 |
| 20260905101515 | 64 | 185 | 0.0 | 1.0 | 0.00 | 0.00 | 0.00 | 62 | 1000.5 |
| 20260905100030 | 64 | 134 | 0.0 | 1.0 | 0.00 | 0.00 | 0.00 | 62 | 1000.6 |
| 20260905094523 | 65 | 128 | 0.0 | 2.0 | 0.00 | 0.00 | 0.00 | 60 | 1000.6 |
| 20260905093025 | 65 | 172 | 0.0 | 1.0 | 0.00 | 0.00 | 0.00 | 60 | 1000.4 |
| 20260905091514 | 66 | 163 | 0.0 | 2.0 | 0.00 | 0.00 | 0.00 | 59 | 1000.4 |
| 20260905090028 | 65 | 208 | 0.0 | 1.0 | 0.00 | 0.00 | 0.00 | 60 | 1000.4 |
| 20260905084527 | 66 | 173 | 0.0 | 1.0 | 0.00 | 0.00 | 0.00 | 59 | 1000.4 |
| 20260905083019 | 67 | 152 | 0.0 | 2.0 | 0.00 | 0.00 | 0.00 | 58 | 1000.5 |
| 20260905081514 | 67 | 234 | 0.0 | 2.0 | 0.00 | 0.00 | 0.00 | 57 | 1000.6 |
| 20260905080037 | 68 | 229 | 0.0 | 5.0 | 0.00 | 0.00 | 0.00 | 56 | 1000.5 |
| 20260905074532 | 69 | 154 | 1.0 | 3.0 | 0.00 | 0.00 | 0.00 | 54 | 1000.5 |
| 20260905073024 | 70 | 223 | 1.0 | 4.0 | 0.00 | 0.00 | 0.00 | 53 | 1000.6 |
| 20260905071554 | 70 | 197 | 1.0 | 4.0 | 0.00 | 0.00 | 0.00 | 52 | 1000.7 |
| 20260905070028 | 70 | 165 | 1.0 | 5.0 | 0.00 | 0.00 | 0.00 | 53 | 1000.6 |
| 20260905064522 | 70 | 185 | 2.0 | 6.0 | 0.00 | 0.00 | 0.00 | 52 | 1000.6 |
| 20260905063015 | 69 | 204 | 2.0 | 4.0 | 0.00 | 0.00 | 0.00 | 49 | 1000.7 |
| 20260905061531 | 69 | 169 | 1.0 | 3.0 | 0.00 | 0.00 | 0.00 | 47 | 1000.8 |
| 20260905060025 | 69 | 174 | 0.0 | 4.0 | 0.00 | 0.00 | 0.00 | 48 | 1000.5 |
| 20260905054519 | 69 | 169 | 0.0 | 3.0 | 0.00 | 0.00 | 0.00 | 50 | 1000.4 |
| 20260905053011 | 71 | 166 | 0.0 | 2.0 | 0.00 | 0.00 | 0.00 | 45 | 1000.5 |
| 20260905051529 | 71 | 235 | 0.0 | 2.0 | 0.00 | 0.00 | 0.00 | 44 | 1000.2 |
| 20260905044523 | 71 | 227 | 1.0 | 5.0 | 0.00 | 0.00 | 0.00 | 46 | 1000.3 |
| 20260905043016 | 71 | 231 | 1.0 | 4.0 | 0.00 | 0.00 | 0.00 | 48 | 1000.3 |
| 20260905041530 | 74 | 240 | 1.0 | 8.0 | 0.00 | 0.00 | 0.00 | 42 | 1000.0 |
| 20260905040028 | 75 | 240 | 3.0 | 10.0 | 0.00 | 0.00 | 0.00 | 40 | 1000.0 |
| 20260905034523 | 74 | 185 | 4.0 | 12.0 | 0.00 | 0.00 | 0.00 | 40 | 1000.1 |
| 20260905033030 | 74 | 154 | 2.0 | 10.0 | 0.00 | 0.00 | 0.00 | 41 | 999.9 |
| 20260905031609 | 74 | 195 | 2.0 | 8.0 | 0.00 | 0.00 | 0.00 | 41 | 999.8 |
| 20260905030026 | 74 | 79 | 2.0 | 9.0 | 0.00 | 0.00 | 0.00 | 41 | 999.6 |
| 20260905024525 | 74 | 100 | 3.0 | 8.0 | 0.00 | 0.00 | 0.00 | 40 | 999.4 |
| 20260905023037 | 74 | 180 | 1.0 | 5.0 | 0.00 | 0.00 | 0.00 | 40 | 999.2 |
| 20260905021532 | 75 | 171 | 2.0 | 5.0 | 0.00 | 0.00 | 0.00 | 39 | 999.3 |
| 20260905020030 | 76 | 160 | 2.0 | 6.0 | 0.00 | 0.00 | 0.00 | 38 | 999.0 |
| 20260905014528 | 76 | 114 | 4.0 | 10.0 | 0.00 | 0.00 | 0.00 | 36 | 999.0 |
| 20260905013024 | 78 | 53 | 5.0 | 11.0 | 0.00 | 0.00 | 0.00 | 34 | 998.8 |
| 20260905011516 | 79 | 190 | 3.0 | 9.0 | 0.00 | 0.00 | 0.00 | 31 | 998.4 |
| 20260905010034 | 82 | 173 | 4.0 | 11.0 | 0.00 | 0.00 | 0.00 | 29 | 998.3 |
| 20260905004524 | 82 | 72 | 1.0 | 9.0 | 0.00 | 0.00 | 0.00 | 29 | 998.3 |
| 20260905003023 | 83 | 148 | 2.0 | 9.0 | 0.00 | 0.00 | 0.00 | 28 | 998.3 |
| 20260905001601 | 83 | 236 | 2.0 | 7.0 | 0.00 | 0.00 | 0.00 | 28 | 998.1 |
| 20260905000029 | 84 | 274 | 1.0 | 5.0 | 0.00 | 0.00 | 0.00 | 27 | 998.1 |
| 20260904234530 | 84 | 124 | 2.0 | 7.0 | 0.00 | 0.00 | 0.00 | 26 | 998.0 |
| 20260904233016 | 85 | 175 | 1.0 | 4.0 | 0.00 | 0.00 | 0.00 | 27 | 997.9 |
| 20260904231513 | 86 | 132 | 2.0 | 9.0 | 0.00 | 0.00 | 0.00 | 24 | 997.8 |
| 20260904230027 | 87 | 54 | 3.0 | 8.0 | 0.00 | 0.00 | 0.00 | 24 | 997.8 |
| 20260904224520 | 86 | 75 | 1.0 | 8.0 | 0.00 | 0.00 | 0.00 | 24 | 997.9 |
| 20260904223020 | 87 | 134 | 3.0 | 8.0 | 0.00 | 0.00 | 0.00 | 25 | 997.9 |
| 20260904221513 | 87 | 254 | 2.0 | 6.0 | 0.00 | 0.00 | 0.00 | 24 | 998.0 |
| 20260904220056 | 88 | 91 | 2.0 | 8.0 | 0.00 | 0.00 | 0.00 | 25 | 998.0 |
| 20260904214524 | 87 | 185 | 1.0 | 7.0 | 0.00 | 0.00 | 0.00 | 24 | 998.2 |
| 20260904213018 | 89 | 173 | 2.0 | 5.0 | 0.00 | 0.00 | 0.00 | 24 | 998.3 |
| 20260904211516 | 86 | 229 | 0.0 | 4.0 | 0.00 | 0.00 | 0.00 | 26 | 998.4 |
| 20260904210017 | 89 | 171 | 2.0 | 9.0 | 0.00 | 0.00 | 0.00 | 24 | 998.6 |
| 20260904204527 | 90 | 210 | 2.0 | 5.0 | 0.00 | 0.00 | 0.00 | 23 | 998.8 |
| 20260904203034 | 90 | 253 | 2.0 | 7.0 | 0.00 | 0.00 | 0.00 | 24 | 998.9 |
| 20260904201517 | 88 | 123 | 1.0 | 4.0 | 0.00 | 0.00 | 0.00 | 23 | 999.1 |
| 20260904200020 | 92 | 242 | 1.0 | 9.0 | 0.00 | 0.00 | 0.00 | 24 | 999.2 |
| 20260904194546 | 92 | 167 | 4.0 | 10.0 | 0.00 | 0.00 | 0.00 | 23 | 999.2 |
| 20260904193023 | 93 | 333 | 2.0 | 8.0 | 0.00 | 0.00 | 0.00 | 22 | 999.5 |
| 20260904191528 | 93 | 46 | 2.0 | 7.0 | 0.00 | 0.00 | 0.00 | 23 | 999.7 |
| 20260904190033 | 91 | 114 | 0.0 | 5.0 | 0.00 | 0.00 | 0.00 | 25 | 999.8 |
| 20260904184525 | 90 | 320 | 1.0 | 7.0 | 0.00 | 0.00 | 0.00 | 28 | 1000.1 |
| 20260904183027 | 90 | 315 | 4.0 | 9.0 | 0.00 | 0.00 | 0.00 | 23 | 1000.2 |
| 20260904181517 | 87 | 180 | 1.0 | 8.0 | 0.00 | 0.00 | 0.00 | 27 | 1000.6 |
| 20260904180012 | 89 | 273 | 2.0 | 6.0 | 0.00 | 0.00 | 0.00 | 24 | 1000.7 |
| 20260904174556 | 87 | 256 | 2.0 | 6.0 | 0.00 | 0.00 | 0.00 | 22 | 1000.9 |
| 20260904173027 | 88 | 39 | 1.0 | 6.0 | 0.00 | 0.00 | 0.00 | 24 | 1001.0 |
| 20260904171523 | 86 | 48 | 1.0 | 3.0 | 0.00 | 0.00 | 0.00 | 28 | 1001.0 |
| 20260904170022 | 84 | 167 | 2.0 | 4.0 | 0.00 | 0.00 | 0.00 | 24 | 1001.1 |
| 20260904164532 | 84 | 163 | 3.0 | 6.0 | 0.00 | 0.00 | 0.00 | 24 | 1001.2 |
| 20260904163036 | 84 | 308 | 2.0 | 6.0 | 0.00 | 0.00 | 0.00 | 25 | 1001.3 |
| 20260904161527 | 82 | 271 | 4.0 | 7.0 | 0.00 | 0.00 | 0.00 | 27 | 1001.4 |
| 20260904160023 | 81 | 172 | 1.0 | 3.0 | 0.00 | 0.00 | 0.00 | 26 | 1001.5 |
| 20260904154518 | 79 | 154 | 1.0 | 3.0 | 0.00 | 0.00 | 0.00 | 27 | 1001.5 |
| 20260904153042 | 78 | 200 | 1.0 | 6.0 | 0.00 | 0.00 | 0.00 | 30 | 1001.6 |
| 20260904151527 | 76 | 164 | 1.0 | 5.0 | 0.00 | 0.00 | 0.00 | 32 | 1001.5 |
| 20260904150024 | 74 | 163 | 1.0 | 5.0 | 0.00 | 0.00 | 0.00 | 31 | 1001.5 |
| 20260904144558 | 72 | 180 | 1.0 | 3.0 | 0.00 | 0.00 | 0.00 | 33 | 1001.4 |
| 20260904143037 | 70 | 169 | 1.0 | 2.0 | 0.00 | 0.00 | 0.00 | 35 | 1001.5 |
| 20260904141530 | 69 | 215 | 0.0 | 3.0 | 0.00 | 0.00 | 0.00 | 38 | 1001.5 |
| 20260904140027 | 68 | 180 | 0.0 | 3.0 | 0.00 | 0.00 | 0.00 | 37 | 1001.2 |
| 20260904134523 | 66 | 174 | 0.0 | 2.0 | 0.00 | 0.00 | 0.00 | 39 | 1001.2 |
| 20260904133107 | 63 | 23 | 0.0 | 2.0 | 0.00 | 0.00 | 0.00 | 46 | 1001.2 |
| 20260904131533 | 64 | 96 | 0.0 | 2.0 | 0.00 | 0.00 | 0.00 | 41 | 1000.8 |
| 20260904130026 | 62 | 261 | 0.0 | 1.0 | 0.00 | 0.00 | 0.00 | 42 | 1000.5 |
| 20260904124516 | 61 | 297 | 0.0 | 1.0 | 0.00 | 0.00 | 0.00 | 45 | 1000.5 |
| 20260904123038 | 59 | 297 | 0.0 | 2.0 | 0.00 | 0.00 | 0.00 | 49 | 1000.4 |
| 20260904121524 | 60 | 285 | 0.0 | 0.0 | 0.00 | 0.00 | 0.00 | 47 | 1000.5 |
| 20260904120024 | 60 | 285 | 0.0 | 0.0 | 0.00 | 0.00 | 0.00 | 46 | 1000.2 |